Peru, IN

1:57 AM EST on February 25, 2018 (GMT -0500)
Grissom Air Reserve Base

Weather History for KGUS - May, 2013

Change the Weather History Date:

Thursday, May 23, 2013

  Actual Average Record
Temperature  
Mean Temperature 54 °F -  
Max Temperature 62 °F 69 °F 87 °F (2007)
Min Temperature 44 °F 53 °F 41 °F (2006)
Degree Days  
Heating Degree Days 11    
Growing Degree Days 4 (Base 50)    
Moisture  
Dew Point 53 °F    
Average Humidity 91    
Maximum Humidity 100    
Minimum Humidity 79    
Precipitation  
Precipitation 0.01 in - - ()
Sea Level Pressure  
Sea Level Pressure 29.93 in    
Wind  
Wind Speed 12 mph (WNW)    
Max Wind Speed 21 mph    
Max Gust Speed 24 mph    
Visibility 9 miles    
Events Rain    
Averages and records for this station are not official NWS values.
T = Trace of Precipitation, MM = Missing Value Source: NWS Daily Summary

Daily Weather History Graph

Daily Weather History Graph

Search for Another Location

Airport or City:

Trip Planner

Search our weather history database for the weather conditions in past years. The results will help you decide how hot, cold, wet, or windy it might be!

Date:

Astronomy

May. 23, 2013 Rise Set
Actual Time 6:20 AM EDT 9:02 PM EDT
Civil Twilight 5:49 AM EDT 9:34 PM EDT
Nautical Twilight 5:09 AM EDT 10:14 PM EDT
Astronomical Twilight 4:24 AM EDT 10:59 PM EDT
Moon 7:33 PM EDT (5/23) 5:05 AM EDT (5/23)
Length of Visible Light 15h 45m
Length of Day
14h 41m
Waxing Gibbous, 97% of the Moon is Illuminated
May 23
Waxing Gibbous
May 25
Full
May 31
Last Quarter
Jun 8
New
Jun 16
First Quarter

Hourly Weather History & Observations

Time (EDT) Temp. Windchill Dew Point Humidity Pressure Visibility Wind Dir Wind Speed Gust Speed Precip Events Conditions
12:02 AM 64.4 °F - 59.0 °F 83% 29.78 in 10.0 mi West 9.2 mph - N/A   Light Drizzle
12:27 AM 62.6 °F - 59.0 °F 88% 29.78 in 10.0 mi West 6.9 mph - N/A   Mostly Cloudy
12:58 AM 62.8 °F - 59.4 °F 89% 29.78 in 10.0 mi West 11.5 mph - 0.00 in   Overcast
1:58 AM 61.5 °F - 59.0 °F 91% 29.78 in 10.0 mi WSW 8.1 mph - N/A   Mostly Cloudy
2:58 AM 60.1 °F - 59.5 °F 98% 29.78 in 10.0 mi WSW 5.8 mph - N/A   Mostly Cloudy
3:58 AM 61.0 °F - 59.5 °F 95% 29.78 in 10.0 mi WSW 6.9 mph - N/A   Overcast
4:58 AM 60.8 °F - 58.3 °F 91% 29.80 in 10.0 mi West 10.4 mph - N/A   Overcast
5:58 AM 60.4 °F - 57.2 °F 89% 29.81 in 10.0 mi West 8.1 mph - N/A   Overcast
6:58 AM 59.0 °F - 57.7 °F 96% 29.82 in 10.0 mi WSW 10.4 mph - N/A   Partly Cloudy
7:43 AM 60.8 °F - 57.2 °F 88% 29.83 in 10.0 mi WSW 12.7 mph - N/A   Overcast
7:58 AM 59.9 °F - 57.6 °F 92% 29.84 in 10.0 mi WSW 12.7 mph - N/A   Overcast
8:03 AM 60.8 °F - 57.2 °F 88% 29.84 in 10.0 mi WSW 11.5 mph - N/A   Overcast
8:16 AM 60.8 °F - 57.2 °F 88% 29.84 in 10.0 mi West 13.8 mph - N/A   Light Drizzle
8:24 AM 59.0 °F - 59.0 °F 100% 29.84 in 1.5 mi WSW 16.1 mph - N/A   Light Drizzle
8:27 AM 59.0 °F - 59.0 °F 100% 29.85 in 7.0 mi West 15.0 mph - N/A   Light Drizzle
8:55 AM 59.0 °F - 59.0 °F 100% 29.85 in 2.0 mi West 11.5 mph - N/A   Light Drizzle
8:58 AM 58.6 °F - 58.6 °F 100% 29.85 in 2.0 mi West 11.5 mph - 0.01 in   Light Drizzle
9:55 AM 60.1 °F - 60.1 °F 100% 29.86 in 10.0 mi West 15.0 mph - 0.00 in Rain Light Rain
10:30 AM 60.8 °F - 59.0 °F 94% 29.86 in 10.0 mi West 15.0 mph 24.2 mph N/A   Overcast
10:57 AM 59.0 °F - 59.0 °F 100% 29.88 in 7.0 mi NW 12.7 mph - N/A Rain Light Rain
10:58 AM 60.4 °F - 59.4 °F 96% 29.89 in 7.0 mi NW 15.0 mph - 0.00 in Rain Light Rain
11:21 AM 57.2 °F - 57.2 °F 100% 29.88 in 6.0 mi NW 13.8 mph - N/A   Overcast
11:58 AM 58.5 °F - 56.7 °F 94% 29.89 in 10.0 mi WNW 15.0 mph - 0.00 in   Overcast
12:58 PM 55.6 °F - 52.3 °F 89% 29.93 in 10.0 mi NW 18.4 mph - N/A   Overcast
1:13 PM 57.2 °F - 51.8 °F 82% 29.93 in 10.0 mi NW 17.3 mph - N/A   Overcast
1:38 PM 55.4 °F - 51.8 °F 88% 29.93 in 10.0 mi WNW 18.4 mph - N/A   Overcast
1:58 PM 55.6 °F - 50.4 °F 83% 29.94 in 10.0 mi NW 18.4 mph 24.2 mph N/A   Overcast
2:58 PM 56.3 °F - 49.8 °F 79% 29.96 in 10.0 mi NW 17.3 mph - N/A   Overcast
3:58 PM 53.4 °F - 48.2 °F 82% 29.99 in 10.0 mi NW 20.7 mph - N/A   Overcast
4:58 PM 51.8 °F - 47.5 °F 85% 30.02 in 10.0 mi NNW 13.8 mph 24.2 mph N/A   Overcast
5:58 PM 49.8 °F - 46.6 °F 89% 30.05 in 10.0 mi NNW 15.0 mph 24.2 mph N/A   Overcast
6:08 PM 50.0 °F - 46.4 °F 87% 30.04 in 10.0 mi NW 17.3 mph 23.0 mph N/A   Overcast
6:58 PM 50.4 °F - 47.1 °F 89% 30.07 in 10.0 mi NNW 15.0 mph - N/A   Overcast
7:58 PM 49.6 °F - 46.6 °F 89% 30.12 in 10.0 mi NNW 12.7 mph 20.7 mph N/A   Overcast
8:58 PM 48.4 °F - 45.9 °F 91% 30.13 in 10.0 mi NNW 15.0 mph - N/A   Overcast
9:13 PM 48.2 °F - 44.6 °F 87% 30.12 in 10.0 mi NNW 13.8 mph - N/A   Overcast
9:18 PM 48.2 °F - 44.6 °F 87% 30.12 in 10.0 mi NNW 12.7 mph - N/A   Overcast
9:58 PM 47.8 °F - 44.2 °F 87% 30.17 in 10.0 mi North 11.5 mph - N/A   Overcast
10:58 PM 44.6 °F 38.4 °F 42.1 °F 91% 30.19 in 10.0 mi North 12.7 mph - N/A   Partly Cloudy
11:38 PM 44.6 °F 37.8 °F 41.0 °F 87% 30.18 in 10.0 mi NNW 15.0 mph - N/A   Mostly Cloudy
11:58 PM 44.2 °F 38.8 °F 41.7 °F 91% 30.20 in 10.0 mi NNW 10.4 mph - N/A   Overcast